K5TWC Weather Reports


time (UTC)temp
C
wind
direction
speed
KPH
gust
KPH
rain 1hr
cm
rain 24hr
cm
rain mn
cm
humidity
%
barometer
mb
20220629024515 27 5 1.6 11.3 0.00 0.00 0.00 55 1017.4
20220629023024 27 16 4.8 14.5 0.00 0.00 0.00 54 1017.4
20220629021521 28 29 3.2 11.3 0.00 0.00 0.00 54 1017.2
20220629020013 28 43 4.8 14.5 0.00 0.00 0.00 52 1017.0
20220629014514 28 55 3.2 12.9 0.00 0.00 0.00 50 1016.9
20220629013017 28 51 1.6 11.3 0.00 0.00 0.00 48 1016.9
20220629011513 29 51 1.6 9.7 0.00 0.00 0.00 47 1016.8
20220629010017 30 34 4.8 14.5 0.00 0.00 0.00 44 1016.6
20220629004513 30 42 4.8 14.5 0.00 0.00 0.00 40 1016.5
20220629003009 31 53 3.2 14.5 0.00 0.00 0.00 37 1016.4
20220629001510 31 45 4.8 12.9 0.00 0.00 0.00 36 1016.4
20220629000011 31 77 3.2 11.3 0.00 0.00 0.00 35 1016.3
20220628234509 31 82 1.6 11.3 0.00 0.00 0.00 36 1016.3
20220628233012 31 57 4.8 11.3 0.00 0.00 0.00 37 1016.4
20220628231507 31 50 4.8 11.3 0.00 0.00 0.00 36 1016.4
20220628230006 31 76 3.2 9.7 0.00 0.00 0.00 35 1016.6
20220628224508 31 11 3.2 11.3 0.00 0.00 0.00 36 1016.9
20220628223005 31 49 4.8 12.9 0.00 0.00 0.00 35 1017.0
20220628221510 31 58 1.6 9.7 0.00 0.00 0.00 35 1017.4
20220628220004 31 43 3.2 11.3 0.00 0.00 0.00 37 1017.5
20220628214503 32 307 4.8 11.3 0.00 0.00 0.00 36 1017.8
20220628213007 32 331 4.8 14.5 0.00 0.00 0.00 37 1017.9
20220628211503 32 18 3.2 12.9 0.00 0.00 0.00 38 1018.1
20220628210100 32 360 3.2 9.7 0.00 0.00 0.00 37 1018.5
20220628204601 31 46 3.2 9.7 0.00 0.00 0.00 38 1018.6
20220628203104 31 344 6.4 12.9 0.00 0.00 0.00 37 1018.9
20220628201558 31 325 6.4 14.5 0.00 0.00 0.00 37 1019.0
20220628200056 31 42 4.8 12.9 0.00 0.00 0.00 37 1019.1
20220628194623 31 346 8.0 16.1 0.00 0.00 0.00 35 1019.1
20220628193103 31 34 9.7 22.5 0.00 0.00 0.00 37 1019.3
20220628191555 31 49 6.4 14.5 0.00 0.00 0.00 37 1019.5
20220628190051 31 51 3.2 12.9 0.00 0.00 0.00 39 1019.6
20220628184550 31 86 4.8 12.9 0.00 0.00 0.00 41 1019.9
20220628183049 31 36 4.8 12.9 0.00 0.00 0.00 40 1020.1
20220628181547 30 99 1.6 16.1 0.00 0.00 0.00 41 1020.3
20220628180051 30 84 6.4 12.9 0.00 0.00 0.00 40 1020.4
20220628174545 30 78 6.4 16.1 0.00 0.00 0.00 42 1020.5
20220628173043 30 47 4.8 12.9 0.00 0.00 0.00 43 1020.6
20220628171545 30 67 4.8 16.1 0.00 0.00 0.00 43 1020.6
20220628170041 29 128 6.4 14.5 0.00 0.00 0.00 43 1020.6
20220628164539 28 78 8.0 16.1 0.00 0.00 0.00 44 1020.8
20220628163039 29 121 8.0 27.4 0.00 0.00 0.00 45 1020.7
20220628161536 28 92 9.7 25.7 0.00 0.00 0.00 44 1020.7
20220628160034 28 123 9.7 17.7 0.00 0.00 0.00 46 1020.7
20220628154536 28 107 9.7 19.3 0.00 0.00 0.00 46 1020.8
20220628153032 28 84 8.0 14.5 0.00 0.00 0.00 46 1020.6
20220628151529 27 108 8.0 17.7 0.00 0.00 0.00 47 1020.7
20220628150026 27 78 8.0 16.1 0.00 0.00 0.00 48 1020.6
20220628144536 26 103 3.2 11.3 0.00 0.00 0.00 53 1020.6
20220628143023 26 116 4.8 14.5 0.00 0.00 0.00 55 1020.7
20220628141519 26 81 4.8 16.1 0.00 0.00 0.00 57 1020.6
20220628140016 25 117 1.6 11.3 0.00 0.00 0.00 61 1020.5
20220628134515 25 84 4.8 12.9 0.00 0.00 0.00 63 1020.5
20220628133022 24 46 3.2 12.9 0.00 0.00 0.00 67 1020.4
20220628131512 23 76 0.0 6.4 0.00 0.00 0.00 72 1020.1
20220628130012 23 55 0.0 4.8 0.00 0.00 0.00 73 1020.2
20220628124511 22 67 0.0 4.8 0.00 0.00 0.00 74 1020.1
20220628123010 22 56 0.0 3.2 0.00 0.00 0.00 76 1020.0
20220628121510 21 63 1.6 6.4 0.00 0.00 0.00 78 1019.8
20220628120009 21 94 0.0 0.0 0.00 0.00 0.00 79 1020.0
20220628114509 21 94 0.0 0.0 0.00 0.00 0.00 79 1019.9
20220628113007 21 94 0.0 0.0 0.00 0.00 0.00 80 1019.7
20220628111506 21 94 0.0 0.0 0.00 0.00 0.00 80 1019.5
20220628110004 21 94 0.0 0.0 0.00 0.00 0.00 80 1019.4
20220628104504 22 94 0.0 0.0 0.00 0.00 0.00 79 1019.5
20220628103001 22 94 0.0 0.0 0.00 0.00 0.00 80 1019.5
20220628101615 22 94 0.0 0.0 0.00 0.00 0.00 80 1019.4
20220628100059 22 94 0.0 0.0 0.00 0.00 0.00 79 1019.5
20220628094601 22 94 0.0 0.0 0.00 0.00 0.00 79 1019.1
20220628093057 22 94 0.0 0.0 0.00 0.00 0.00 79 1019.1
20220628091556 22 94 0.0 3.2 0.00 0.00 0.00 78 1019.0
20220628090054 22 94 0.0 4.8 0.00 0.00 0.00 77 1019.0
20220628084551 23 92 0.0 3.2 0.00 0.00 0.00 77 1018.9
20220628083050 23 84 0.0 4.8 0.00 0.00 0.00 77 1018.7
20220628081549 23 92 0.0 4.8 0.00 0.00 0.00 77 1018.8
20220628080048 23 99 0.0 4.8 0.00 0.00 0.00 77 1018.8
20220628074546 23 95 0.0 3.2 0.00 0.00 0.00 76 1018.9
20220628073044 23 94 0.0 3.2 0.00 0.00 0.00 76 1019.0
20220628071542 24 86 0.0 8.0 0.00 0.00 0.00 74 1019.0
20220628070040 24 113 0.0 4.8 0.00 0.00 0.00 74 1019.1
20220628064539 24 115 0.0 4.8 0.00 0.00 0.00 74 1019.0
20220628063037 25 82 0.0 4.8 0.00 0.00 0.00 73 1019.0
20220628061536 25 107 1.6 9.7 0.00 0.00 0.00 74 1019.0
20220628060034 25 81 1.6 8.0 0.00 0.00 0.00 74 1019.3
20220628054535 25 94 0.0 4.8 0.00 0.00 0.00 74 1019.1
20220628053031 25 72 1.6 6.4 0.00 0.00 0.00 73 1019.1
20220628051530 25 101 0.0 8.0 0.00 0.00 0.00 73 1019.4
20220628050028 26 88 0.0 8.0 0.00 0.00 0.00 72 1019.3
20220628044531 26 65 0.0 4.8 0.00 0.00 0.00 72 1019.3
20220628043027 26 55 0.0 3.2 0.00 0.00 0.00 71 1019.0
20220628041526 26 57 0.0 6.4 0.00 0.00 0.00 71 1018.9
20220628040026 26 81 1.6 6.4 0.00 0.00 0.00 70 1018.9
20220628034525 27 81 0.0 8.0 0.00 0.00 0.00 70 1018.6
20220628033025 27 45 1.6 8.0 0.00 0.00 0.00 69 1018.4
20220628031524 27 67 3.2 8.0 0.00 0.00 0.00 68 1018.1
20220628030023 27 81 1.6 6.4 0.00 0.00 0.00 68 1018.1